Flag for Germany Weather past 2 weeks in Ratingen, North Rhine-Westphalia, Germany

Now
59 °F

Scattered clouds.


Feels Like: 57 °F
Forecast: 46 / 58 °F
Wind: 9 mph from Northwest

Location: Duesseldorf

Current Time: Sep 21, 2014 at 8:46:45 PM

Latest Report: Sep 21, 2014 at 8:20 PM


Visibility: N/A

Pressure: 30.09 "Hg

Humidity: 68%

Dew point: 48 °F

Location of RatingenLocation

Historic Weather in Ratingen — Graph

°F

Ratingen temperature yesterday

Maximum temperature yesterday: 75 °F (at 3:20 PM)
Minimum temperature yesterday: 61 °F (at 12:50 AM)
Average temperature yesterday: 65 °F

Past Weeks' High & Low Weather Summary

 TemperatureHumidityPressure
High77 °F (Sep 17, 2:20 PM)100% (Sep 8, 6:50 AM)30.24 "Hg (Sep 8, 6:50 AM)
Low46 °F (Sep 12, 5:50 AM)46% (Sep 11, 4:50 PM)29.83 "Hg (Sep 18, 4:50 AM)
Average63 °F79%30.03 "Hg
* Reported Sep 6 7:20 PM — Sep 21 7:20 PM, Ratingen, Weather by CustomWeather, © 2014

Note: Actual official high and low records may vary slightly from our data, if they occured in-between our weather recording intervals... More about our weather records

Advertising

Ratingen weather history for previous 24 hours

 ConditionsComfort  
Time TempWeatherWind HumidityBarometerVisibility
7:20 PM
Sep 21
61 °FPartly sunny.13 mph63%30.07 "HgN/A
6:50 PM61 °FPartly sunny.13 mph63%30.07 "HgN/A
6:20 PM63 °FPassing clouds.14 mph59%30.04 "HgN/A
5:50 PM63 °FPassing clouds.15 mph56%30.04 "HgN/A
5:20 PM64 °FPassing clouds.14 mph56%30.04 "HgN/A
4:20 PM64 °FScattered clouds.13 mph60%30.04 "HgN/A
3:50 PM66 °FPassing clouds.12 mph52%30.01 "HgN/A
3:20 PM64 °FScattered clouds.10 mph56%30.04 "HgN/A
2:50 PM64 °FPartly sunny.12 mph60%30.04 "HgN/A
2:20 PM64 °FScattered showers. Partly sunny.13 mph68%30.04 "HgN/A
1:50 PM64 °FScattered clouds.9 mph68%30.04 "HgN/A
1:20 PM64 °FScattered clouds.10 mph68%30.04 "HgN/A
12:50 PM64 °FPartly sunny.14 mph73%30.04 "HgN/A
12:20 PM63 °FBroken clouds.12 mph77%30.01 "HgN/A
11:20 AM61 °FBroken clouds.12 mph88%30.01 "Hg6 mi
10:50 AM61 °FLight rain. Broken clouds.12 mph94%30.01 "Hg5 mi
10:20 AM63 °FLight rain. Broken clouds.10 mph83%30.01 "Hg5 mi
9:50 AM63 °FLight rain. Fog.9 mph88%29.98 "Hg3 mi
9:20 AM63 °FFog.6 mph88%29.98 "Hg2 mi
8:50 AM63 °FDrizzle. Fog.7 mph88%29.98 "Hg2 mi
8:20 AM63 °FFog.7 mph88%29.98 "Hg2 mi
7:50 AM61 °FFog.5 mph94%29.95 "Hg3 mi
7:20 AM63 °FFog.7 mph88%29.95 "Hg3 mi
6:50 AM63 °FDrizzle. Fog.8 mph88%29.95 "Hg3 mi
6:20 AM63 °FFog.7 mph88%29.95 "Hg3 mi
5:50 AM63 °FFog.3 mph88%29.95 "Hg3 mi
5:20 AM63 °FFog.5 mph94%29.95 "Hg3 mi
4:50 AM63 °FFog.5 mph94%29.95 "Hg3 mi
4:20 AM63 °FFog.6 mph94%29.98 "Hg2 mi
3:50 AM63 °FLight rain. Fog.6 mph94%29.98 "Hg2 mi
3:20 AM63 °FFog.5 mph94%29.98 "Hg2 mi
2:50 AM63 °FLight rain. Fog.3 mph94%29.98 "Hg2 mi
2:20 AM63 °FFog.2 mph94%29.98 "Hg3 mi
1:50 AM63 °FPassing clouds.3 mph94%29.98 "Hg4 mi
1:20 AM63 °FMostly cloudy.2 mph88%29.98 "Hg5 mi
12:20 AM63 °FMostly cloudy.3 mph88%29.98 "HgN/A
11:50 PM
Sep 20
63 °FMostly cloudy.1 mph88%29.98 "HgN/A
11:20 PM61 °FPassing clouds.1 mph94%29.98 "HgN/A
10:20 PM61 °FPartly cloudy.1 mph88%29.95 "HgN/A
9:50 PM61 °FPassing clouds.1 mph88%29.95 "HgN/A
9:20 PM63 °FFog.1 mph77%29.95 "HgN/A
8:50 PM64 °FPassing clouds.2 mph78%29.95 "HgN/A
8:20 PM64 °FPartly sunny.2 mph78%29.95 "HgN/A
Weather by CustomWeather, © 2014

See weather overviewHow to use our weather pages